Wind_Speed
15 16 16 15 16 16 17 18 17 17 17 18 18 19 19 19 19 20 20 20 20 20 20 21 21 20 20 20 21 21 22 22 22 23 23 24 25 26 26 25 25 25 26 26
16 16 15 15 16 16 17 17 17 17 18 18 19 19 18 19 19 19 19 19 19 20 20 21 21 21 21 21 21 22 22 22 22 22 23 24 25 25 25 25 25 26 26 27
17 16 16 16 16 17 17 17 17 17 17 18 19 19 18 18 19 19 18 18 18 19 20 21 21 22 21 21 21 22 22 21 21 22 22 23 24 25 25 26 26 27 27 28
18 17 16 15 15 16 16 16 17 17 18 18 19 19 17 17 17 18 17 18 18 18 19 20 20 21 21 21 21 21 21 21 22 22 22 23 23 24 25 26 27 28 28 28
18 17 16 16 16 16 16 16 17 17 17 18 18 20 18 17 17 17 17 17 18 18 19 19 20 20 20 20 21 21 21 21 22 23 23 23 22 23 24 26 27 27 27 27
19 18 18 17 17 16 17 17 17 17 17 17 17 18 17 17 17 17 18 18 19 19 19 20 20 20 20 20 20 21 22 22 23 23 23 23 23 23 24 24 25 25 26 27
19 19 19 18 18 18 18 18 18 18 18 17 16 17 17 17 17 18 17 18 18 18 18 19 19 19 20 20 21 21 22 23 23 24 23 24 24 24 24 24 25 26 27 27
21 20 20 19 18 18 18 19 19 19 19 17 17 17 17 18 18 19 18 18 17 18 18 19 20 20 20 21 22 22 22 23 24 24 24 25 25 25 25 25 26 26 27 27
22 21 20 20 19 19 19 19 19 20 19 19 18 17 16 17 18 19 20 19 19 19 19 20 21 21 22 22 23 23 23 24 24 24 25 25 25 25 26 27 27 28 28 28
23 23 21 21 21 20 20 19 19 20 21 21 20 19 18 18 18 19 20 21 21 21 21 21 22 22 22 23 24 24 24 24 24 24 25 25 26 27 28 29 29 30 30 31
23 24 23 23 23 22 21 21 21 22 23 23 22 20 19 19 19 20 21 21 21 21 21 22 22 23 23 24 25 25 25 25 25 25 26 26 27 28 30 30 31 32 31 32
24 24 24 24 24 24 23 22 22 23 23 23 24 21 21 21 21 21 21 21 21 22 22 22 23 24 25 26 26 26 26 26 27 27 28 28 29 30 31 32 33 33 33 34
26 26 25 25 25 25 25 24 24 25 25 25 24 23 22 23 23 23 23 22 22 23 24 24 25 25 26 26 27 27 27 28 28 28 29 30 31 32 32 33 34 34 34 35
28 28 28 27 27 27 26 25 26 27 27 27 26 25 23 24 25 25 25 25 25 25 25 26 26 27 27 28 28 28 29 29 30 30 30 31 32 33 33 33 34 34 34 35
30 30 31 30 29 29 28 28 28 28 28 28 26 26 25 25 26 26 26 26 26 26 26 27 27 27 28 28 28 29 29 30 31 32 32 33 33 33 33 34 34 34 34 34
31 32 32 32 31 31 31 31 30 30 29 29 28 27 27 28 28 28 28 27 28 28 28 28 28 28 29 29 29 30 30 31 31 32 33 34 34 34 34 34 35 35 34 35
33 34 34 34 33 34 34 31 31 31 30 31 31 29 29 30 30 30 30 30 30 30 29 29 29 30 30 30 30 31 32 32 32 33 33 34 35 35 36 36 36 36 36 36
34 35 36 37 36 37 34 33 33 33 33 33 34 32 32 32 32 32 31 32 32 32 31 31 31 31 31 31 32 32 33 33 33 33 34 35 36 36 36 36 36 36 37 37
36 36 37 38 39 39 37 36 36 37 36 35 35 35 35 35 35 33 33 33 33 33 33 33 33 33 33 33 34 34 34 35 35 35 35 36 36 37 37 37 37 37 38 39
38 38 39 40 41 42 39 39 39 40 40 38 38 38 37 37 37 36 35 35 35 34 34 35 35 35 35 35 35 35 36 36 37 37 37 37 37 38 39 39 39 39 40 40
39 40 40 41 42 42 41 41 41 41 41 40 40 40 40 40 39 38 38 37 37 37 36 36 36 37 37 37 37 38 38 38 38 38 39 39 39 39 39 40 40 40 41 41
41 42 42 42 42 41 41 41 41 42 42 42 42 42 41 41 40 40 40 40 40 39 39 38 38 39 39 39 40 40 40 40 40 40 40 40 41 41 41 42 41 41 41 42
43 43 43 43 43 42 42 41 42 42 43 43 43 43 43 43 42 42 42 42 42 42 42 42 42 42 42 42 42 42 43 43 43 43 43 43 44 44 43 43 43 43 42 42
45 45 45 45 44 43 44 44 44 44 45 45 45 45 45 44 44 44 45 45 45 45 45 45 45 44 45 45 45 45 45 46 45 45 45 45 45 45 44 44 44 44 44 44
47 47 48 48 46 47 47 47 47 47 47 47 47 46 46 46 46 46 46 47 47 47 48 47 47 47 47 47 47 47 47 47 47 47 47 46 45 45 45 45 45 45 45 45
46 47 48 48 47 48 49 50 50 50 50 50 49 49 49 49 49 49 49 49 50 49 49 49 49 49 48 48 48 48 48 49 49 48 48 47 46 47 47 46 46 45 46 46
Wind_Direction
274 273 272 273 272 271 271 270 272 275 276 275 271 269 268 266 263 263 263 259 257 257 258 259 260 264 269 273 276 277 277 279 280 282 282 284 286 288 289 287 283 283 283 284
274 274 274 272 271 270 271 272 273 274 275 276 273 270 268 268 265 262 260 257 256 256 259 261 262 266 269 273 277 277 278 280 281 282 282 285 288 288 287 285 283 283 284 285
275 275 274 272 270 270 272 273 274 275 276 277 275 270 268 269 266 263 259 257 258 259 262 265 264 265 269 273 276 278 278 279 282 282 282 286 288 289 287 286 286 287 287 287
271 272 272 272 271 271 272 272 274 275 276 275 275 273 265 269 267 263 260 257 259 262 265 266 267 269 271 273 275 277 279 279 282 283 284 286 290 290 289 288 289 289 287 286
270 269 269 270 271 271 272 272 275 277 280 277 275 274 269 271 270 266 264 262 262 264 267 269 269 270 272 274 276 278 279 281 282 282 283 287 289 292 292 291 291 289 287 288
270 269 269 271 270 272 273 272 274 277 279 277 277 276 274 273 271 267 266 266 266 267 270 272 271 271 273 276 278 280 282 282 283 283 284 286 287 291 294 294 294 291 290 290
269 268 269 270 271 271 273 274 274 276 277 279 281 280 278 277 274 271 270 268 269 270 272 274 275 274 275 278 280 283 284 284 284 284 286 288 288 291 293 293 293 292 292 291
269 268 269 271 273 272 273 274 275 277 281 282 282 284 284 282 279 273 271 272 272 274 273 275 277 277 278 280 282 284 285 285 286 285 286 288 289 291 292 293 294 293 294 293
271 269 268 270 271 271 271 273 275 276 279 280 282 286 285 285 284 276 272 272 274 275 275 276 278 280 280 281 283 285 286 286 285 286 287 288 288 291 292 293 294 294 294 294
270 271 268 267 267 269 270 272 272 274 279 281 279 283 289 289 286 282 279 274 275 277 277 277 278 281 282 283 283 284 284 285 285 286 287 287 289 291 293 293 293 294 294 293
267 269 269 267 266 268 269 269 271 274 277 281 282 285 287 288 287 285 283 280 278 278 278 277 278 279 280 282 283 284 285 285 285 286 287 287 289 291 292 292 293 293 292 293
266 267 269 269 268 267 267 268 270 273 275 278 282 284 282 285 286 285 284 284 281 278 277 277 278 278 279 281 283 284 284 284 284 286 287 288 289 290 291 291 292 293 293 293
265 266 269 270 270 269 268 269 271 273 274 276 279 280 279 282 284 283 283 282 282 280 279 277 278 278 279 281 283 283 283 285 286 286 287 289 289 289 290 291 291 292 292 293
264 264 266 270 273 272 269 268 270 272 275 277 278 279 277 277 280 282 283 282 280 280 281 279 279 279 279 281 281 282 282 284 285 286 287 289 290 289 289 290 291 291 292 293
265 264 263 266 269 269 269 268 269 272 275 278 280 278 276 276 277 279 280 280 280 281 282 281 281 281 281 281 281 282 282 283 284 286 286 288 289 289 289 290 291 291 292 293
267 267 264 264 266 267 267 268 269 270 272 275 276 277 276 277 278 278 279 279 280 281 282 282 282 283 283 282 282 282 283 284 285 286 287 288 289 290 290 289 289 290 292 293
268 269 267 265 264 266 267 268 269 269 270 273 275 276 275 276 278 279 279 279 279 280 281 281 282 283 283 283 283 283 284 285 286 287 287 287 288 289 290 290 291 292 292 293
269 271 270 268 267 267 270 269 270 271 271 272 274 274 275 277 278 277 277 277 278 278 279 279 279 280 281 282 283 283 283 284 285 286 287 287 287 288 289 290 290 291 292 293
269 271 270 270 270 270 269 271 272 272 273 274 274 274 275 275 276 276 276 277 278 278 278 278 279 279 280 281 282 283 283 284 284 285 286 287 287 287 288 289 290 290 292 292
270 270 270 271 271 271 272 273 274 275 275 275 275 275 276 277 277 277 277 277 279 279 278 278 279 279 279 281 283 284 284 284 284 285 287 288 288 287 287 288 289 290 291 292
270 270 271 272 272 273 274 275 274 275 276 275 275 276 277 278 279 278 277 276 277 277 277 278 278 279 279 281 283 284 284 284 284 285 286 288 289 289 289 289 290 290 291 291
269 269 270 270 271 272 273 273 274 275 274 275 275 275 276 277 278 278 277 275 274 274 275 275 276 277 279 280 281 282 283 283 284 285 286 287 288 289 290 290 290 290 290 290
268 269 268 268 269 270 270 272 273 273 273 273 274 274 275 275 276 276 275 275 274 275 275 274 275 276 278 279 280 281 282 283 284 284 285 286 287 289 289 289 290 290 290 290
267 267 266 266 267 267 268 271 272 272 271 272 272 273 273 274 274 274 274 274 274 274 274 274 274 275 277 279 280 280 281 282 283 283 284 285 286 287 287 288 289 290 290 290
267 267 266 267 267 267 268 270 271 271 271 272 271 272 273 273 274 274 273 273 273 272 272 272 273 274 276 277 278 278 280 281 282 282 282 283 284 285 286 286 287 288 289 290
266 267 267 268 268 268 268 269 270 271 271 271 271 272 273 273 273 273 273 273 273 271 271 271 272 273 274 275 276 277 278 280 281 281 281 282 283 284 285 286 287 288 289 290
Height
5738 5738 5738 5737 5736 5736 5736 5735 5735 5735 5734 5733 5733 5733 5734 5734 5735 5735 5736 5736 5738 5739 5740 5741 5742 5742 5743 5743 5742 5742 5741 5740 5739 5739 5737 5736 5734 5732 5730 5728 5727 5726 5726 5726
5734 5734 5734 5733 5732 5732 5731 5731 5731 5731 5729 5729 5728 5728 5729 5729 5730 5730 5731 5732 5733 5734 5735 5736 5737 5738 5738 5738 5738 5737 5736 5735 5735 5734 5732 5731 5729 5726 5724 5723 5721 5721 5720 5720
5729 5731 5729 5729 5728 5727 5727 5727 5727 5726 5726 5724 5724 5724 5725 5725 5725 5725 5726 5727 5729 5730 5731 5732 5732 5732 5732 5732 5732 5732 5731 5730 5729 5728 5727 5725 5723 5721 5719 5718 5716 5715 5714 5713
5725 5725 5725 5724 5724 5723 5723 5723 5722 5722 5721 5720 5720 5719 5721 5721 5721 5721 5722 5723 5724 5725 5726 5727 5727 5727 5727 5727 5727 5726 5726 5725 5724 5723 5722 5720 5718 5716 5714 5712 5711 5709 5707 5706
5720 5721 5720 5720 5720 5720 5720 5719 5719 5717 5716 5716 5716 5715 5718 5717 5717 5717 5718 5719 5720 5721 5722 5722 5723 5723 5723 5722 5722 5721 5721 5720 5719 5718 5717 5715 5713 5711 5709 5707 5705 5703 5702 5701
5717 5716 5716 5716 5716 5716 5715 5716 5715 5713 5713 5712 5713 5711 5713 5713 5713 5714 5714 5715 5716 5717 5717 5718 5718 5718 5718 5718 5718 5717 5716 5715 5714 5713 5711 5710 5708 5706 5704 5702 5700 5698 5697 5695
5712 5712 5711 5711 5711 5712 5711 5712 5711 5709 5709 5709 5709 5708 5710 5709 5709 5710 5710 5711 5711 5712 5713 5713 5713 5714 5714 5713 5713 5712 5711 5710 5709 5707 5706 5704 5702 5701 5699 5697 5695 5693 5691 5689
5707 5707 5707 5707 5707 5707 5707 5707 5707 5706 5706 5706 5706 5705 5707 5706 5706 5706 5707 5707 5707 5708 5708 5708 5709 5709 5709 5708 5707 5707 5705 5704 5703 5702 5700 5699 5697 5695 5693 5692 5690 5687 5685 5683
5702 5703 5703 5702 5703 5703 5703 5703 5703 5703 5702 5702 5702 5703 5704 5703 5703 5702 5703 5703 5703 5703 5703 5703 5703 5703 5703 5702 5702 5701 5699 5698 5697 5696 5694 5693 5691 5689 5688 5686 5684 5682 5679 5677
5697 5697 5698 5698 5698 5699 5699 5699 5699 5699 5698 5698 5699 5700 5700 5699 5699 5698 5698 5698 5698 5699 5699 5698 5698 5698 5697 5697 5696 5694 5693 5692 5691 5689 5688 5687 5685 5683 5681 5680 5678 5675 5673 5670
5691 5692 5693 5693 5694 5694 5695 5695 5694 5694 5694 5694 5694 5698 5696 5695 5694 5694 5693 5693 5693 5693 5693 5693 5693 5693 5692 5691 5690 5689 5687 5686 5684 5683 5682 5680 5678 5677 5674 5672 5670 5668 5666 5663
5686 5686 5687 5688 5689 5689 5689 5689 5689 5690 5690 5689 5689 5694 5690 5689 5689 5688 5688 5688 5688 5687 5687 5687 5686 5686 5685 5684 5683 5682 5681 5680 5678 5677 5675 5673 5671 5669 5667 5665 5663 5660 5658 5655
5680 5680 5681 5682 5684 5684 5683 5684 5684 5684 5684 5683 5684 5688 5685 5684 5683 5683 5683 5682 5682 5681 5681 5680 5680 5679 5678 5677 5676 5675 5674 5673 5671 5669 5668 5666 5664 5662 5660 5657 5655 5652 5649 5647
5673 5674 5675 5676 5676 5676 5677 5678 5677 5677 5677 5677 5678 5680 5680 5678 5677 5677 5676 5676 5675 5675 5674 5673 5673 5672 5671 5670 5669 5668 5667 5665 5663 5662 5660 5658 5656 5654 5651 5649 5646 5643 5641 5638
5665 5666 5667 5668 5668 5669 5670 5671 5671 5670 5671 5671 5672 5671 5672 5671 5670 5670 5669 5669 5668 5668 5667 5666 5666 5665 5664 5663 5662 5660 5659 5657 5655 5653 5651 5649 5647 5645 5642 5640 5637 5635 5632 5629
5657 5658 5659 5660 5661 5661 5661 5663 5663 5663 5663 5663 5663 5664 5664 5663 5663 5662 5662 5661 5661 5660 5659 5659 5658 5657 5656 5655 5654 5652 5650 5649 5647 5645 5643 5641 5638 5636 5633 5631 5628 5625 5622 5620
5649 5649 5650 5651 5652 5651 5653 5657 5656 5656 5656 5656 5655 5657 5656 5655 5655 5654 5654 5653 5653 5652 5652 5650 5649 5649 5647 5646 5645 5643 5642 5640 5638 5636 5633 5631 5629 5627 5624 5621 5619 5616 5613 5610
5640 5641 5640 5641 5643 5642 5649 5648 5648 5647 5647 5647 5646 5647 5647 5646 5645 5645 5645 5644 5644 5643 5642 5642 5640 5640 5638 5637 5636 5634 5632 5631 5629 5626 5624 5622 5619 5617 5614 5612 5609 5606 5603 5600
5631 5631 5631 5631 5631 5633 5638 5639 5638 5637 5637 5637 5636 5637 5636 5636 5635 5636 5635 5635 5634 5633 5632 5632 5631 5630 5629 5627 5626 5624 5623 5621 5619 5616 5614 5612 5609 5607 5604 5601 5598 5595 5592 5589
5621 5621 5622 5621 5621 5622 5629 5628 5626 5626 5626 5627 5625 5626 5626 5625 5625 5627 5626 5625 5624 5623 5622 5621 5620 5619 5618 5617 5616 5614 5613 5611 5608 5606 5604 5601 5599 5596 5594 5591 5587 5584 5581 5578
5611 5611 5611 5611 5609 5612 5617 5617 5616 5616 5617 5615 5614 5614 5614 5614 5615 5615 5614 5614 5613 5612 5612 5611 5610 5609 5607 5606 5605 5604 5602 5600 5598 5596 5593 5591 5588 5585 5582 5579 5576 5573 5570 5567
5600 5600 5600 5600 5600 5604 5605 5604 5605 5604 5603 5603 5603 5603 5603 5603 5603 5602 5602 5602 5601 5601 5600 5599 5599 5598 5596 5595 5593 5592 5591 5589 5587 5584 5582 5579 5576 5574 5571 5567 5564 5561 5558 5555
5587 5589 5588 5589 5592 5592 5591 5592 5592 5591 5591 5590 5590 5591 5591 5591 5590 5590 5590 5590 5589 5589 5588 5587 5587 5586 5585 5583 5582 5580 5579 5576 5575 5572 5570 5567 5564 5561 5558 5555 5552 5549 5546 5543
5574 5575 5574 5576 5579 5579 5578 5578 5578 5578 5578 5578 5578 5578 5578 5577 5578 5577 5577 5577 5576 5576 5575 5574 5574 5573 5572 5571 5569 5567 5566 5564 5562 5560 5557 5554 5552 5549 5546 5543 5539 5536 5533 5530
5561 5560 5560 5561 5565 5565 5565 5565 5565 5565 5564 5564 5565 5565 5564 5564 5564 5564 5564 5563 5563 5562 5561 5560 5560 5559 5558 5557 5555 5554 5552 5550 5548 5546 5544 5541 5538 5536 5533 5530 5527 5524 5521 5517
5548 5547 5547 5548 5550 5550 5550 5550 5551 5550 5551 5550 5550 5550 5550 5549 5549 5549 5549 5549 5548 5547 5547 5546 5545 5544 5543 5542 5541 5539 5537 5536 5534 5532 5530 5527 5525 5522 5520 5517 5514 5510 5507 5504